SL-8 DEB, 27746

Orbit data source: Space-Track

SL-8 DEB, 27746 is space debris in LEO originally from a launch on Tue, 12 Feb 1991 UTC launched from the Plesetsk Missile And Space Complex (PKMTR). Debris objects in space refer to the collection of defunct objects orbiting the Earth. Examples of debris include non-operational satellites, rocket bodies, and fragments generated from explosions, collisions, or faulty payload assembly.

Loading next visibility...
Identifier
27746, 1991-009DB
Orbit
LEO
Country
Flag of CISCIS
Related business
Manufacturer
Unknown
Mission
Spacecraft
Bus & Motor
Unknown
Mass
Unknown
Launch date (UTC)
1991-02-12 (35 years ago)
Launch vehicle
Unknown
Launch site
Plesetsk Missile And Space Complex (PKMTR)
Object type
Payload
Rocket body
Debris
Shape & HBR
Unknown shape, 0.1 m
Radar Cross Section
Medium (>0.1 m² and <1 m²)

Expand to show TLE details & history
Last TLE update: 2 days ago

TLE from 2 days ago
0 SL-8 DEB
1 27746U 91009DB  26171.44098705  .00000055  00000-0  67104-3 0  9990
2 27746  74.1024  71.0054 0175934  58.2761 119.1578 12.14599316574156
Epoch: 2026-06-20T10:35Z
TLE epoch observation values (Epoch: 2026-06-20T10:35:01.281Z)
Latitude
0.69783°
Longitude
-176.60332°
Altitude
1,688.802 km
Speed
7 km/s
True Right ascension
16h 43m 13s
True Declination
0° 41' 39"
Sunlit
Object was in full shadow at epoch
Visualization orbit readout
Latitude
Unknown
Longitude
Unknown
Altitude
Unknown
Speed
Unknown
Apparent Right ascension
Unknown
Apparent Declination
Unknown
Sunlit
N/A
Visualization observer readout
Local Sidereal Time
02:30:11
Azimuth
Unknown
Elevation
Unknown
Doppler factor
Unknown
Orbital elements
Apogee altitude
1,754.631 km
Perigee altitude
1,473.412 km
Semi-major axis
7,992.158 km
Eccentricity
0.01759
Inclination
74.1024°
RAAN
71.0054°
Arg. of periapsis
58.2761°
True anomaly
120.89944°
Mean anomaly
119.1578°
Eccentric anomaly
120.03051°
Mean motion
3.03772 °/min
Orbital period
118.51 mins
BSTAR
0.00067104
Loading maneuver chart data...
Computing Atmospheric mass density...
Loading historical data...
Loading historical data...
Loading historical data...
Loading historical data...
Loading historical data...
Loading historical data...
Loading historical data...

Documentation

Showing up to 5 results
|